Theta_e
305 306 306 306 306 306 305 305 305 305 305 307 309 312 317 319 319 320 325 327 325 324 322 321 321 319 319 320 321 322 324 323 324 325 326 327 327 327 328 328 328 330 331 331 331 328 325 325 326 326 327 329 329 330 330 328 329 331 328 328 332 332 326 318 314 322 328 329 331 332 330 332 327 326 330 328 325 322 319 319 319 315 313 314 313 311 318
305 306 306 306 306 306 305 305 305 305 305 306 309 313 315 316 317 318 321 324 325 323 323 322 321 321 321 320 321 322 322 322 323 325 326 327 327 326 327 328 327 328 329 330 332 328 322 324 327 328 328 329 330 330 329 330 330 329 328 330 328 325 323 320 314 317 321 322 325 325 326 328 325 326 330 329 328 328 325 324 324 318 314 315 315 312 317
305 306 306 306 306 306 305 306 305 305 305 305 308 313 315 317 320 319 317 321 324 323 323 323 322 323 322 321 322 321 322 322 323 325 326 327 327 327 327 327 327 328 328 328 331 330 325 324 328 328 327 329 330 329 331 331 328 329 338 341 330 324 327 325 314 311 314 315 316 316 320 324 325 327 329 328 330 327 323 321 318 315 316 318 314 312 322
305 306 306 306 306 305 305 306 305 305 305 305 308 313 315 317 323 324 321 321 322 322 323 322 322 324 325 325 325 322 321 322 323 324 327 327 327 327 327 326 326 326 327 328 329 330 329 327 330 330 329 328 328 331 331 328 332 349 356 344 331 329 331 330 325 317 315 318 323 326 326 322 319 321 325 327 331 330 326 319 315 318 319 317 319 323 325
305 305 305 306 306 305 306 306 305 304 305 306 309 314 316 320 325 326 325 325 323 321 321 320 319 322 325 327 328 327 323 322 323 325 327 327 327 327 326 326 326 325 326 328 326 328 330 330 329 329 328 328 328 331 329 328 346 362 353 333 331 330 324 327 334 328 324 328 332 332 329 322 319 321 323 325 329 330 325 317 321 330 322 314 329 340 327
304 305 305 305 306 305 306 306 305 304 305 308 312 316 319 322 323 321 322 324 325 323 322 321 320 320 322 325 328 328 326 325 324 325 325 326 326 327 327 327 326 325 327 326 325 329 333 331 331 330 330 330 329 329 329 330 343 348 333 327 334 328 320 324 328 325 327 329 329 330 331 327 327 326 324 326 327 325 322 320 326 335 323 318 338 347 332
304 305 304 305 306 306 306 306 305 304 305 310 315 318 319 317 316 316 318 319 322 323 323 325 326 324 325 325 327 327 328 328 326 324 325 325 324 325 327 326 324 326 328 326 329 336 334 331 336 341 339 336 332 328 328 329 333 332 326 330 334 325 322 329 326 321 324 328 328 330 329 326 326 328 327 329 329 326 325 325 327 332 329 329 344 346 337
304 305 304 305 306 306 307 307 306 305 306 312 317 318 317 314 312 314 316 317 318 320 322 326 327 327 328 328 328 328 328 329 328 326 325 325 325 326 325 326 326 326 328 328 330 337 336 334 338 341 339 337 334 329 329 329 329 329 327 330 332 325 322 330 329 319 319 326 328 328 328 326 323 325 329 330 328 327 326 327 327 329 329 331 341 342 339
304 304 305 304 305 306 307 307 306 305 307 313 317 316 316 315 313 314 315 317 319 319 322 326 326 328 329 329 329 328 328 329 328 327 326 323 326 326 324 325 326 324 330 336 335 334 335 335 336 335 335 335 333 331 331 330 329 329 329 329 331 328 324 328 327 315 313 322 326 324 327 326 319 319 325 326 325 325 326 329 330 328 330 332 330 328 332
304 304 305 304 304 306 307 307 307 306 307 311 313 314 316 314 312 313 316 319 321 319 320 324 325 326 326 326 328 327 327 327 326 328 331 326 325 327 327 328 328 331 337 338 335 333 333 333 332 331 332 332 331 331 331 330 329 330 329 328 330 330 326 323 320 312 312 321 324 323 322 318 314 318 325 326 328 329 327 330 333 332 334 332 324 323 334
304 304 304 304 304 305 307 307 307 306 306 309 311 312 315 314 312 313 317 321 323 320 319 321 322 323 323 324 326 326 327 328 327 330 332 330 327 328 329 330 332 337 338 335 332 331 332 331 331 330 330 330 330 331 331 331 330 331 331 329 331 332 328 324 322 315 312 319 323 322 318 313 315 325 330 330 330 330 328 328 333 335 335 334 331 335 341
304 304 304 304 304 305 307 308 307 307 306 308 309 311 314 314 312 313 318 321 324 323 322 322 320 322 325 324 326 327 328 328 328 328 329 330 331 330 330 331 331 334 334 331 329 331 332 332 333 332 331 330 329 329 330 331 330 331 331 330 331 332 330 328 327 319 315 319 321 317 314 318 327 332 333 331 331 331 332 333 334 333 333 335 336 336 338
303 303 304 304 304 304 307 308 307 307 306 307 309 310 313 314 312 312 316 319 321 322 323 324 321 321 324 325 326 327 327 327 328 327 327 329 330 330 330 330 330 330 329 327 329 332 332 335 336 334 333 332 330 328 329 330 330 330 330 330 331 333 331 328 326 322 318 317 315 315 319 328 336 338 333 332 334 335 332 331 333 332 333 336 336 336 336
303 303 303 304 304 304 306 307 307 307 306 306 308 309 312 313 311 310 314 317 319 320 320 321 321 320 322 323 323 324 324 326 326 326 326 327 328 329 329 328 327 326 325 327 330 332 333 334 334 332 332 331 328 326 327 328 329 329 329 330 331 332 333 331 326 323 320 314 311 318 323 325 331 336 336 334 334 334 331 326 331 338 335 335 340 340 336
303 303 303 304 304 304 306 307 307 307 306 306 307 309 311 313 311 310 312 315 317 319 319 317 317 317 318 319 319 320 322 324 325 325 325 325 326 328 327 326 325 324 325 328 330 333 334 330 324 321 323 322 319 321 326 328 328 328 329 329 331 333 337 338 329 324 322 315 313 317 317 316 324 333 336 335 333 334 335 329 329 337 335 333 338 341 337
303 304 304 304 303 304 305 306 306 307 307 306 307 309 310 312 312 310 310 312 316 319 320 316 313 313 316 318 318 317 318 323 325 326 327 326 325 326 325 324 324 324 325 328 330 333 333 327 320 318 318 320 319 320 324 325 324 327 329 329 329 331 337 342 331 323 322 318 315 317 314 316 329 337 335 333 331 333 334 326 324 335 338 333 334 337 337
304 304 303 303 303 304 305 305 307 307 306 306 307 308 310 312 312 311 310 311 315 319 319 314 311 312 314 318 319 319 319 322 324 325 327 327 327 327 325 323 324 324 325 328 331 332 330 326 322 318 319 325 324 320 322 321 318 321 327 329 328 330 335 334 324 318 320 319 317 318 318 324 335 336 331 331 333 334 330 319 321 334 337 334 335 336 339
304 304 303 302 302 303 304 304 306 307 306 306 306 308 310 311 312 312 310 311 314 317 318 314 311 311 313 315 315 316 318 319 319 320 323 326 327 327 325 324 324 325 327 328 330 330 327 325 323 319 319 326 326 321 321 320 316 319 328 330 328 327 329 328 323 318 318 318 317 317 322 331 336 332 331 333 331 329 323 320 329 340 338 336 336 334 336
304 304 303 302 302 303 303 304 305 306 306 306 306 308 310 311 312 312 310 311 313 315 316 315 312 311 313 313 314 316 318 319 318 320 322 324 324 323 322 324 323 324 326 328 330 330 325 323 327 325 320 323 326 323 322 321 321 323 327 328 326 326 325 324 323 321 319 318 318 316 322 333 336 331 332 335 332 326 325 331 341 343 337 336 336 335 336
303 303 303 303 303 303 303 304 304 305 306 306 306 308 309 310 312 312 311 311 312 312 313 313 313 311 311 312 312 313 315 316 318 320 320 322 322 320 322 325 324 325 329 330 330 331 326 323 328 327 321 323 329 327 322 323 327 326 327 329 331 330 324 319 321 324 322 321 319 318 324 336 338 333 336 338 336 335 338 340 340 337 336 336 334 334 339
303 303 303 303 303 303 303 304 304 304 305 306 306 307 309 310 311 311 311 311 310 311 313 313 313 311 310 310 310 311 312 313 314 315 316 317 319 320 323 328 329 330 332 332 331 331 328 327 329 328 326 329 332 329 323 323 328 333 334 334 335 335 327 320 325 332 328 323 325 327 332 337 335 336 338 338 339 341 341 339 336 333 336 337 334 337 343
303 303 303 302 302 303 303 303 303 304 305 305 306 307 309 310 310 310 310 310 310 311 312 312 312 312 311 311 310 310 310 311 311 313 313 314 316 318 323 328 329 328 329 329 332 333 331 331 332 331 332 334 334 333 331 325 324 333 339 334 333 340 337 330 333 338 333 331 335 337 337 337 333 335 338 335 335 338 338 337 337 335 337 337 336 338 341
303 303 303 302 302 302 302 302 303 304 305 305 306 307 308 309 310 310 310 310 311 312 313 314 314 315 315 313 312 311 311 310 311 311 311 313 316 320 324 325 324 325 327 327 328 329 330 331 332 332 335 338 335 334 336 330 327 335 341 335 335 342 341 338 343 345 341 342 343 337 334 336 332 330 333 333 333 335 335 336 337 335 335 335 335 336 336
303 303 303 303 302 302 302 302 303 304 305 305 306 307 307 308 309 309 309 311 313 314 315 316 315 315 315 313 311 311 311 311 311 311 310 312 316 321 324 322 319 322 327 325 324 325 327 330 332 331 334 337 334 332 336 339 339 338 336 334 336 337 333 334 343 344 342 346 347 339 334 335 333 330 331 332 331 332 333 335 337 335 334 334 334 335 335
303 303 303 303 303 302 302 302 303 304 305 305 305 306 307 309 309 309 309 311 312 313 315 317 316 313 312 310 308 309 311 311 312 311 310 311 314 317 319 319 318 320 323 323 323 325 326 329 331 330 332 333 331 331 336 342 343 340 335 335 337 336 332 336 341 341 340 343 344 339 334 333 332 331 331 331 331 331 331 332 333 334 334 334 333 333 333
303 303 303 303 303 303 302 302 303 304 305 305 305 306 307 308 309 308 309 310 311 312 314 317 315 311 311 310 310 310 309 310 311 311 310 311 312 314 316 317 317 318 320 322 323 325 326 327 329 330 332 332 330 330 332 336 338 337 335 335 335 333 335 338 336 335 340 342 339 336 336 334 331 330 331 332 332 332 330 330 330 330 331 332 331 331 332
303 303 303 303 303 302 302 302 303 304 305 305 305 306 308 308 308 308 309 309 311 313 316 317 315 314 313 312 310 310 308 309 311 312 311 310 310 312 314 315 315 317 320 322 323 324 325 326 326 327 328 328 328 329 329 330 332 333 333 333 332 332 336 336 332 333 340 342 337 335 341 339 332 328 330 331 332 332 330 330 330 329 329 330 330 330 332
303 303 303 303 303 302 302 302 303 304 304 304 305 307 308 308 308 308 308 308 310 312 314 314 314 315 314 312 310 310 310 310 310 311 311 311 311 311 312 312 313 316 318 320 322 324 325 324 324 325 326 326 327 328 327 327 328 329 331 331 330 331 334 335 333 332 334 334 331 333 338 337 331 328 329 330 331 331 330 329 329 329 329 328 328 329 332
303 303 303 303 303 302 302 302 302 303 303 304 306 308 308 308 308 308 308 308 309 310 311 312 314 315 314 312 311 310 311 311 310 311 312 312 312 312 312 312 312 313 316 318 321 323 324 323 323 324 324 325 326 326 326 326 326 326 328 328 327 329 330 330 332 331 328 326 327 329 330 330 329 328 328 328 330 330 329 328 328 328 327 327 327 329 330
303 303 304 303 303 302 302 301 302 303 303 304 306 308 309 308 309 308 308 308 308 309 310 312 315 316 315 313 312 312 312 312 312 312 312 312 312 313 313 313 313 313 314 316 318 319 320 321 322 322 322 322 323 324 325 324 324 324 325 325 326 328 328 327 328 327 325 324 325 325 326 327 327 326 326 327 329 328 328 327 327 327 326 325 327 331 330
303 303 303 303 303 302 301 301 302 302 303 305 307 309 310 310 309 307 305 305 307 309 310 312 314 315 315 314 312 311 313 313 313 314 314 313 313 313 313 313 314 314 314 315 317 317 317 318 318 319 320 319 320 321 322 322 323 324 324 324 326 326 326 325 325 324 323 323 322 322 323 324 325 326 326 327 327 326 326 326 326 327 329 327 326 328 327
303 303 303 303 302 301 301 301 301 302 303 306 307 308 308 308 306 305 304 305 307 310 311 313 315 316 316 314 312 311 312 313 312 314 314 313 313 314 313 312 313 313 314 314 316 316 317 316 316 316 317 319 318 317 318 319 321 323 322 321 323 324 323 323 323 322 321 320 319 319 321 323 325 326 325 324 324 323 324 325 324 326 328 326 324 325 325
303 303 303 303 302 301 301 301 301 301 303 304 305 306 306 305 304 304 305 306 308 310 311 312 314 316 316 313 311 311 311 312 314 314 314 313 314 314 313 312 312 313 313 313 313 315 316 316 315 315 316 318 317 316 317 317 317 318 319 317 319 320 321 320 320 319 318 319 319 320 322 323 324 324 323 322 323 323 324 324 323 322 323 322 321 323 323
303 303 303 302 301 301 300 301 301 302 302 304 306 307 306 305 305 305 304 305 307 309 311 311 313 317 316 312 309 310 311 313 315 315 315 315 314 314 315 313 311 313 314 313 313 314 314 314 315 315 316 317 316 316 317 317 315 315 316 316 317 318 318 318 318 318 319 320 322 323 322 322 321 322 323 323 323 323 324 324 323 322 322 321 321 322 321
303 303 303 302 301 300 300 301 302 304 306 307 308 308 306 305 305 305 304 305 308 311 312 312 313 316 316 313 312 312 312 313 314 315 316 315 314 314 317 316 314 314 315 314 313 314 315 315 315 315 316 317 317 317 317 316 315 315 316 315 317 318 318 317 318 320 321 322 322 322 321 320 321 322 324 324 323 323 324 323 322 322 322 323 323 324 323
303 303 302 302 301 301 302 303 304 306 307 308 308 307 305 304 305 306 306 307 309 310 313 314 314 315 315 315 315 314 311 312 315 315 313 313 313 314 316 318 318 318 317 315 314 315 316 316 315 315 316 316 317 318 318 317 317 318 317 317 318 318 318 318 319 320 322 322 321 320 320 320 321 323 325 325 324 323 323 322 322 322 323 323 324 325 324
303 303 302 302 302 303 305 306 306 306 307 307 306 305 304 304 306 308 308 308 309 309 311 313 314 314 314 316 315 313 311 312 313 313 312 313 314 314 314 317 319 319 318 317 317 316 317 317 316 316 317 317 318 319 320 319 319 318 318 318 318 318 319 320 320 321 322 321 321 321 322 322 324 326 326 325 324 323 323 323 322 322 322 323 323 324 324
303 303 302 303 304 305 306 307 306 306 307 305 305 306 307 307 309 309 309 309 310 310 309 311 313 313 313 314 314 313 313 314 313 313 314 315 314 314 314 316 317 316 316 318 318 317 318 319 317 317 318 318 318 318 318 318 318 319 319 319 320 321 322 322 322 323 323 324 324 325 325 325 325 325 324 324 323 323 323 322 322 322 322 322 323 325 325
303 303 304 304 304 305 307 307 306 305 305 305 305 308 309 308 309 310 310 310 310 310 309 310 312 313 312 313 313 312 314 315 316 316 314 313 314 315 315 316 316 315 315 318 319 317 317 319 319 319 319 318 319 320 320 319 319 320 320 320 320 321 322 322 322 322 323 323 324 324 324 323 323 323 323 323 323 322 322 322 321 321 322 323 324 325 325
303 304 304 304 305 305 307 306 304 304 306 306 306 308 309 307 308 311 311 309 309 310 309 310 312 312 312 313 314 314 314 316 319 320 317 315 315 316 316 317 319 317 316 318 319 318 318 319 319 319 320 321 322 322 322 320 320 320 320 320 320 320 321 320 320 320 320 320 320 320 320 320 320 321 321 322 322 321 321 320 321 321 322 322 324 325 326
304 304 304 305 306 306 306 306 304 305 307 307 306 307 308 308 308 310 310 309 309 310 310 310 311 311 311 312 315 316 316 316 318 319 319 318 316 315 316 319 319 317 316 318 318 319 320 319 318 318 321 322 322 321 320 319 320 320 320 320 320 320 320 319 319 320 320 319 319 320 320 319 319 319 319 319 320 321 321 320 320 321 321 321 322 323 323
304 305 305 306 306 306 306 306 306 307 308 308 306 306 306 307 308 308 309 310 310 309 310 311 311 311 310 311 314 316 316 316 317 317 318 319 317 316 318 319 318 316 317 318 318 318 319 317 316 318 321 321 320 320 320 319 319 319 319 319 319 319 319 318 319 319 319 320 320 320 321 321 321 321 321 320 321 321 321 321 320 320 320 320 321 321 323
303 304 305 306 306 306 306 306 307 307 307 307 306 306 307 307 308 308 308 309 310 310 310 311 312 312 311 311 313 313 313 314 315 316 317 318 317 316 317 318 317 316 317 317 317 317 317 318 320 322 322 321 321 321 320 320 319 319 319 319 319 319 319 318 318 319 319 319 319 320 320 321 321 321 321 321 321 321 321 321 321 320 319 319 319 321 323
303 304 305 306 306 306 306 306 307 308 307 306 305 307 308 308 308 309 309 309 310 311 310 310 311 312 311 312 313 313 314 314 315 316 316 316 316 316 317 317 317 316 316 316 317 316 317 320 323 323 322 321 321 320 320 321 320 319 319 319 318 318 318 318 318 318 318 318 319 320 320 320 320 320 320 320 320 320 321 320 320 320 319 319 320 321 323
304 304 304 305 305 305 306 306 306 307 307 306 305 307 308 308 308 309 309 309 310 311 310 310 311 313 313 313 313 314 315 315 315 315 316 316 315 315 316 316 316 316 316 316 316 316 319 322 323 322 321 321 321 320 320 321 320 320 319 319 319 319 319 319 318 318 318 318 319 319 319 319 319 320 319 320 320 321 321 322 321 321 320 320 321 323 325
304 303 304 305 305 305 306 306 305 306 307 306 306 307 308 308 309 310 310 310 310 310 310 311 312 313 314 314 313 314 314 314 315 315 315 315 315 315 315 315 315 316 316 317 316 317 320 322 322 321 321 321 320 320 320 321 320 320 320 319 319 318 318 318 318 318 318 319 320 320 320 320 320 320 320 320 321 322 323 325 324 323 323 324 324 325 327
304 304 304 304 304 304 305 305 305 306 306 306 306 307 308 308 309 310 310 310 310 310 311 311 312 313 314 314 314 314 314 313 315 315 314 314 315 315 314 315 316 316 317 318 318 318 320 321 320 320 320 320 320 320 320 320 320 320 320 320 319 319 319 318 318 319 319 320 320 320 321 321 321 320 320 321 321 322 324 326 324 322 323 326 327 326 327
304 303 304 304 304 304 305 306 306 306 307 306 306 307 308 308 309 309 310 311 311 311 311 311 312 313 314 314 314 314 313 313 314 315 314 314 315 314 312 313 315 316 317 318 319 320 320 320 320 320 320 320 320 320 320 320 320 320 320 320 319 319 319 319 319 320 320 320 320 320 321 321 321 320 320 321 322 322 324 325 324 321 321 324 327 326 326
304 303 304 305 305 305 305 305 306 307 307 307 307 307 307 308 309 309 309 311 311 312 312 312 312 313 313 313 312 312 312 312 313 313 313 313 314 313 312 313 316 317 318 319 320 320 320 319 319 319 319 319 320 320 320 320 320 320 319 320 320 320 320 320 320 321 321 320 321 321 321 320 320 322 322 323 323 324 325 325 322 320 320 322 325 325 326
304 303 304 305 306 307 306 306 307 308 308 307 308 308 307 307 309 309 310 311 313 312 312 312 312 312 312 311 310 310 311 311 312 312 312 313 314 314 314 315 317 318 319 319 319 319 319 319 319 319 320 320 320 320 320 320 320 319 319 320 320 320 320 320 321 321 321 321 321 321 321 321 321 323 323 323 323 324 325 324 322 320 321 322 323 324 325
304 304 304 305 306 307 307 307 308 309 309 307 308 308 308 308 309 311 311 312 313 312 311 312 311 310 310 309 308 309 310 312 312 312 312 313 313 314 315 317 318 318 319 319 318 318 318 318 319 320 321 321 321 321 321 321 320 320 321 321 321 321 321 321 320 321 321 321 320 321 321 322 322 322 323 323 323 323 324 324 322 320 320 321 320 321 323
303 303 304 305 305 306 307 308 308 308 308 308 308 309 308 308 310 311 312 312 311 311 311 311 310 309 308 309 309 310 312 313 312 312 313 314 315 316 317 318 319 318 318 318 318 318 319 320 320 321 321 322 322 322 322 321 320 320 322 322 321 322 323 323 322 321 321 321 321 321 322 322 322 322 323 323 322 322 323 324 323 321 321 321 321 321 322
Wind_Speed
26 26 26 27 30 32 34 36 36 38 39 32 24 18 8 5 7 6 6 14 15 9 8 8 8 9 11 13 16 17 15 15 15 16 16 14 11 12 12 13 13 13 13 13 14 14 12 15 16 14 14 17 15 18 23 23 19 15 12 13 13 9 5 7 8 8 11 15 16 16 16 14 13 11 12 11 10 9 9 7 5 5 9 9 5 4 4
27 26 26 28 30 31 33 35 35 35 34 30 21 12 6 6 8 10 10 14 15 10 8 8 9 10 13 15 18 18 16 16 16 16 15 12 10 12 13 14 14 12 13 14 14 13 9 13 18 16 13 15 17 20 23 23 19 13 12 11 9 7 6 6 6 5 7 10 11 13 15 13 10 10 14 16 15 15 13 9 5 6 9 8 6 6 5
26 26 26 28 29 31 33 34 35 34 33 30 19 7 5 7 5 7 11 14 13 10 9 9 9 11 14 17 18 17 16 17 18 16 14 12 12 13 13 15 16 14 14 15 14 14 12 9 12 15 15 13 15 20 21 21 20 15 12 12 9 7 7 6 6 7 8 8 7 9 11 11 10 13 16 19 21 21 15 8 6 6 6 7 7 5 4
26 26 27 27 29 31 33 35 35 33 33 32 19 8 6 5 4 5 6 10 10 9 10 12 11 10 11 12 15 17 17 16 16 13 11 13 15 15 13 15 17 16 17 15 13 13 15 13 9 11 15 11 12 18 21 21 18 7 6 8 9 7 8 8 7 8 9 7 6 9 11 11 13 15 17 17 18 18 13 7 6 5 5 6 6 6 6
26 26 27 27 28 30 32 35 35 33 32 30 18 8 5 3 5 6 4 3 8 9 10 12 11 12 12 8 10 16 18 16 13 12 10 14 17 15 15 17 16 15 17 15 12 14 16 16 13 12 15 13 12 17 20 19 12 6 4 10 10 5 7 13 13 11 13 12 6 8 12 13 14 15 17 18 17 18 15 11 7 6 6 7 8 11 12
25 26 27 27 28 30 31 34 36 34 32 26 13 6 5 4 6 8 10 7 7 7 7 10 12 15 15 11 10 14 16 16 13 11 12 15 17 14 14 18 19 16 16 14 11 12 12 13 14 11 12 12 11 15 17 15 13 7 9 12 7 5 9 14 16 15 16 19 16 14 14 14 15 15 17 18 19 20 18 16 14 9 6 5 6 8 10
24 25 27 27 27 29 30 33 35 35 31 21 8 6 5 5 6 8 11 9 9 11 12 13 12 13 13 11 12 14 15 15 15 13 12 14 16 16 16 16 17 17 17 15 11 5 4 9 10 9 9 10 9 12 13 13 14 11 13 9 5 7 8 11 14 13 16 20 21 21 18 15 16 17 18 19 20 22 20 19 20 15 11 10 8 9 9
23 24 26 26 26 27 29 31 34 35 31 20 8 4 5 6 5 7 10 10 11 12 13 12 11 10 10 9 10 13 15 15 14 14 14 14 14 17 20 17 17 20 20 17 11 3 3 8 9 11 14 9 6 9 9 10 13 14 13 9 8 8 6 9 12 11 14 18 17 18 18 18 18 18 20 20 18 19 20 19 18 16 15 14 9 9 8
22 23 25 25 25 26 27 29 32 33 29 20 10 6 9 10 10 9 8 9 10 10 11 10 9 7 8 8 9 12 15 15 12 11 14 16 14 14 18 18 19 19 12 7 5 2 4 8 8 10 12 7 3 6 6 10 13 13 12 10 9 10 7 9 10 9 11 14 16 19 22 21 21 21 22 20 16 15 15 14 15 14 11 7 5 5 5
21 22 24 24 24 25 25 26 29 30 27 18 10 8 11 13 12 10 8 8 9 9 9 9 8 7 8 9 10 12 14 15 14 9 9 13 14 13 14 15 13 9 4 6 7 7 7 8 9 9 10 8 5 4 3 10 12 9 10 9 7 9 9 8 9 9 10 14 19 20 18 16 15 16 16 16 16 16 16 15 14 13 10 7 4 5 2
22 21 23 24 23 23 24 24 26 27 25 18 11 11 13 12 9 8 7 7 8 8 8 9 8 8 10 9 9 11 12 11 12 9 5 9 13 11 10 12 8 1 3 4 10 12 9 9 10 10 10 11 9 9 8 11 9 4 7 9 8 9 9 6 7 6 8 15 17 13 12 11 8 8 11 15 16 16 19 18 10 3 3 4 5 3 3
22 21 22 23 23 22 23 23 23 24 23 20 15 13 13 13 10 7 5 6 9 8 7 10 10 8 9 9 8 11 11 7 6 7 5 7 10 6 5 10 8 1 2 5 10 12 10 8 11 13 13 11 11 14 16 14 9 6 7 8 7 7 6 5 6 6 7 10 11 10 11 7 5 8 13 15 14 14 16 13 5 7 6 6 6 4 3
22 22 22 22 22 21 21 21 22 22 23 22 17 15 15 14 9 6 5 6 8 7 9 13 13 8 7 8 8 10 12 8 6 7 7 6 8 6 2 3 4 3 5 7 8 9 7 5 8 12 11 8 10 15 17 16 14 12 10 8 6 7 6 5 6 8 8 7 9 10 7 4 6 9 10 8 8 11 13 10 2 4 6 6 6 5 3
21 21 21 22 21 20 20 20 21 21 22 23 20 18 17 12 7 6 5 4 7 8 9 11 12 12 9 8 8 9 10 10 8 9 9 9 10 9 3 3 4 5 7 7 6 5 4 2 3 7 7 5 8 11 13 15 16 15 14 11 10 9 6 3 4 7 7 9 10 7 4 5 6 7 7 7 8 8 7 7 8 5 3 1 5 7 5
20 20 21 21 20 19 18 19 20 20 22 22 20 19 17 10 7 8 6 4 7 8 6 7 10 14 13 10 9 9 9 9 8 8 10 11 9 8 4 3 4 5 5 5 4 2 3 4 5 6 7 7 7 8 9 10 12 16 17 14 12 11 7 4 4 5 5 8 10 8 8 9 6 6 8 7 9 10 6 5 6 4 5 5 5 8 6
19 19 21 20 19 18 18 19 20 20 21 22 19 19 18 10 6 10 9 5 5 6 5 10 14 13 11 10 10 11 8 7 7 7 7 8 9 9 4 3 4 6 5 5 4 3 4 6 7 8 9 9 8 7 7 7 8 13 16 16 15 13 9 7 6 5 5 8 9 8 9 7 3 8 11 7 8 11 7 5 5 3 3 4 4 6 6
18 18 20 20 19 18 18 18 19 19 19 20 19 20 20 12 7 10 9 5 5 7 7 11 13 10 8 7 8 9 7 6 8 7 5 4 6 7 1 5 6 7 5 4 4 4 6 7 7 8 8 9 10 9 8 8 9 9 11 13 14 13 9 8 10 9 8 10 8 6 7 4 1 5 8 5 7 10 9 7 3 1 1 2 4 5 7
17 17 19 19 18 18 18 17 18 19 18 19 19 20 19 13 9 9 8 5 6 7 5 10 10 8 7 8 8 8 8 8 7 7 8 5 3 5 7 7 6 4 3 3 4 5 7 7 7 8 8 8 10 9 8 8 10 9 7 7 10 11 9 8 9 9 9 9 8 8 7 3 1 4 8 6 5 7 8 6 1 3 2 0 1 2 5
17 17 17 18 17 17 17 17 17 18 18 18 19 18 17 13 10 9 8 6 4 6 8 9 9 8 9 9 8 7 8 8 6 6 8 5 4 11 12 7 3 3 4 5 5 5 6 7 7 6 7 9 9 8 8 8 8 9 9 8 7 7 7 8 9 9 10 9 9 9 6 2 4 6 8 7 2 4 3 1 2 4 5 4 2 2 4
18 17 17 17 16 16 17 17 17 17 17 17 17 17 18 15 9 8 7 6 5 8 8 5 7 10 11 9 8 8 8 8 6 6 7 6 8 11 9 3 2 3 4 4 5 6 6 7 7 6 7 8 5 5 8 8 8 10 9 6 3 2 4 9 8 6 6 7 7 7 4 3 8 8 6 8 4 2 2 3 2 1 3 4 3 2 4
17 16 15 16 16 16 16 16 16 16 16 16 15 16 19 16 9 6 8 9 7 6 4 5 10 13 12 10 10 10 9 8 7 7 6 7 8 8 5 2 3 3 3 4 4 5 4 5 6 5 6 5 1 3 6 7 7 7 4 2 2 3 5 7 4 1 1 3 2 1 2 5 8 6 2 5 6 1 2 3 2 1 4 4 4 5 6
15 15 15 15 15 15 15 15 15 15 15 15 15 14 16 16 12 10 12 12 9 8 11 15 17 16 14 11 10 8 9 10 8 7 6 6 8 7 5 4 6 5 4 4 4 3 3 4 4 3 4 3 1 2 6 6 5 3 1 2 1 2 2 1 0 2 2 2 3 1 3 4 8 8 4 5 8 7 7 7 4 3 5 4 4 4 5
14 13 14 14 14 15 15 15 14 14 13 13 13 12 14 17 16 14 14 12 10 12 16 19 18 15 13 9 5 5 7 7 6 6 5 6 7 5 2 5 7 5 4 4 4 4 5 5 4 2 2 2 2 3 5 5 4 2 2 0 1 2 0 1 1 2 3 3 2 2 3 4 9 10 8 9 10 9 9 9 7 5 4 2 3 4 5
13 13 13 13 13 14 15 15 14 13 13 11 10 11 14 18 17 14 13 9 7 7 9 11 9 5 3 3 3 5 6 4 3 5 5 4 5 4 3 6 7 6 5 6 6 5 5 5 5 4 2 2 3 2 0 1 4 6 4 1 2 3 2 2 2 3 1 2 4 5 3 3 8 9 9 9 10 9 8 7 6 5 4 3 3 4 4
12 12 12 12 12 13 14 14 13 12 12 11 10 10 13 14 13 12 10 7 6 6 6 6 4 2 2 1 4 4 4 3 2 4 4 4 5 5 5 7 8 6 6 7 7 5 5 4 5 5 4 1 2 2 3 2 2 6 5 1 0 3 3 3 2 4 5 4 6 8 4 8 10 8 6 6 6 7 7 6 6 7 7 6 5 4 5
11 11 11 11 11 12 12 13 13 12 11 10 10 10 12 12 12 10 9 9 7 5 6 6 3 5 2 3 4 2 4 5 4 3 4 5 5 5 6 7 8 7 7 7 6 5 5 5 4 5 4 0 1 3 3 2 3 5 3 1 2 3 3 2 1 2 3 5 6 9 8 11 10 7 6 5 4 5 6 6 7 8 8 8 8 7 7
11 11 11 10 10 11 12 12 12 12 11 11 10 10 11 12 10 8 7 9 7 3 5 4 1 1 3 3 1 1 4 5 5 4 4 4 4 5 6 5 6 7 6 5 5 4 4 4 4 5 4 1 2 4 5 2 3 4 3 4 5 3 1 2 3 2 2 3 2 1 5 6 6 6 7 5 4 4 5 6 7 8 9 9 10 10 9
11 10 10 10 10 10 11 11 12 11 12 11 10 11 12 12 10 8 6 7 7 4 5 6 6 9 9 4 2 3 4 3 4 5 5 4 3 4 4 4 5 6 5 5 4 3 3 4 4 3 3 3 3 3 5 5 5 4 3 5 4 2 1 2 2 3 5 4 5 5 4 4 3 5 5 4 4 4 5 6 7 8 8 9 10 10 10
10 10 9 9 9 9 10 10 11 11 11 11 11 12 11 10 8 5 4 5 6 6 6 7 7 8 4 3 4 4 4 4 4 5 4 4 4 4 3 3 3 4 5 5 4 4 3 4 4 3 3 2 3 4 2 4 5 4 5 6 2 5 7 5 5 7 7 6 6 6 4 2 2 4 4 3 3 4 5 7 8 9 9 9 9 9 9
10 9 9 8 8 8 9 10 10 10 10 11 11 10 7 6 3 3 2 4 6 6 6 5 5 5 2 2 4 4 5 5 5 5 5 4 4 3 3 2 2 3 4 4 4 4 3 3 4 3 3 3 3 5 3 3 4 2 2 2 4 10 11 9 7 7 7 7 6 5 5 6 5 5 5 2 4 4 6 7 8 9 9 9 8 8 8
9 8 8 7 7 8 8 9 9 9 10 10 9 6 2 3 3 6 6 5 7 7 5 5 6 6 4 2 3 4 5 5 5 5 5 4 3 3 3 2 2 3 3 3 3 4 4 3 4 4 4 5 3 4 4 4 4 2 5 6 7 9 9 7 6 7 7 6 5 4 4 6 5 5 5 5 7 7 7 8 8 8 8 8 8 9 10
8 7 7 7 7 8 8 8 8 9 10 11 10 8 6 6 6 7 7 6 6 6 5 4 5 6 3 3 4 3 5 6 5 4 4 3 3 3 3 3 3 2 1 2 3 3 3 3 4 4 2 3 2 4 3 4 4 2 8 9 6 6 7 6 5 7 8 7 7 5 3 3 5 6 7 9 10 9 8 8 9 9 8 9 10 12 12
7 6 7 7 7 7 7 7 8 9 10 13 14 13 11 9 6 5 5 5 7 8 6 4 5 5 2 2 4 4 5 5 4 4 4 3 3 3 3 3 3 1 2 2 2 2 3 3 3 3 2 3 1 4 2 4 6 6 7 7 5 6 7 6 5 5 4 4 5 5 5 6 7 7 7 8 8 8 7 8 9 9 9 10 11 12 11
7 7 7 7 7 7 7 7 8 9 10 12 11 7 4 3 2 3 3 5 7 7 5 4 5 5 3 2 5 5 5 5 4 4 4 3 3 3 3 3 2 2 3 3 3 2 2 2 2 3 2 4 2 2 2 4 5 5 6 6 5 6 5 4 3 2 2 4 5 5 5 5 5 6 6 6 6 8 8 8 9 9 9 9 9 10 11
7 7 7 7 7 7 8 9 9 10 10 10 6 2 1 1 3 4 4 4 5 4 3 4 4 4 4 4 3 4 3 5 2 2 1 2 3 4 2 3 3 2 3 2 3 3 3 2 2 3 2 3 4 2 2 3 3 1 2 4 5 5 4 4 4 4 6 6 5 5 6 7 7 6 5 6 7 8 9 9 10 10 10 9 9 9 10
7 8 8 7 7 7 8 9 10 9 7 4 2 2 2 3 4 5 6 7 7 5 3 3 4 3 3 3 1 2 2 3 0 1 0 2 3 3 3 3 3 2 3 3 4 3 2 2 1 2 2 2 3 2 0 1 2 3 4 5 6 7 6 6 7 7 7 7 7 8 7 7 7 5 5 6 7 8 9 10 10 10 10 10 9 8 8
8 8 7 7 7 7 8 9 10 8 5 3 2 3 4 4 4 6 7 8 8 6 3 4 5 4 4 2 1 1 2 2 2 2 2 2 2 2 2 4 3 2 2 4 4 2 2 3 1 3 2 1 0 2 3 2 3 3 4 5 6 6 5 6 6 7 7 8 8 8 7 7 6 6 6 7 8 8 9 9 9 9 9 10 9 8 9
9 8 7 8 7 5 5 5 7 6 6 5 4 3 4 4 4 4 4 4 5 6 5 5 5 4 4 3 0 1 1 2 2 3 2 0 0 2 3 2 0 1 2 2 2 1 2 3 2 3 3 1 1 2 3 2 3 3 4 5 7 7 7 7 7 8 8 7 7 8 8 8 8 8 8 8 9 9 9 8 8 9 10 10 10 10 10
9 8 7 7 6 3 0 3 6 6 6 6 5 3 3 3 3 3 4 4 4 4 4 5 5 5 4 3 1 1 0 2 2 1 2 1 0 1 2 1 1 1 3 1 3 0 3 3 3 3 3 2 1 3 4 4 5 6 7 7 8 8 8 8 8 9 9 8 9 9 9 9 9 9 8 8 8 9 9 9 9 9 9 10 11 11 11
10 7 6 6 4 2 1 4 7 8 7 5 4 3 2 2 3 3 4 4 4 4 4 5 5 4 3 2 0 1 1 3 3 2 1 1 1 1 2 0 1 2 4 2 2 1 3 2 2 2 1 2 4 5 6 5 6 8 9 10 9 9 9 9 9 9 9 10 11 11 11 11 11 10 10 10 10 10 10 10 10 10 10 11 12 12 13
9 7 5 3 1 1 2 4 7 7 5 3 3 3 2 2 3 3 3 4 4 4 4 4 3 3 3 3 2 1 2 3 2 2 2 1 2 3 3 0 0 3 3 1 2 1 2 2 2 1 4 5 5 4 4 4 6 9 10 11 11 10 10 10 10 11 12 11 11 10 11 13 13 11 11 11 10 10 10 10 10 12 13 13 14 15 16
6 4 4 2 0 1 3 4 4 3 2 1 2 3 3 3 3 3 3 3 2 3 4 3 2 3 3 2 2 3 2 3 3 3 1 1 1 3 2 1 1 3 1 2 1 2 3 3 2 2 5 5 4 3 3 3 6 7 8 10 10 10 11 12 12 14 15 13 12 11 12 13 13 12 12 12 11 11 11 11 12 13 15 15 16 16 16
4 5 5 4 2 2 3 3 2 1 1 1 1 2 3 4 4 3 3 3 2 2 4 3 1 1 3 3 3 2 1 1 3 2 1 0 1 2 2 1 2 1 1 1 2 3 3 1 2 5 5 6 8 9 9 9 8 7 7 8 9 10 12 12 12 14 16 16 15 14 14 15 15 15 16 16 15 13 13 14 15 16 16 17 18 16 15
6 5 3 1 0 1 2 1 1 2 3 3 2 3 5 5 4 4 4 4 2 2 3 3 2 2 2 2 1 1 2 0 2 1 0 0 1 2 2 2 1 1 2 2 3 3 2 2 4 6 7 8 9 10 11 11 9 7 7 8 10 13 14 14 14 14 15 16 17 16 15 15 15 16 18 18 17 15 14 14 16 18 18 18 18 16 13
5 3 1 2 1 1 1 1 1 3 3 4 4 4 3 3 4 3 2 2 2 2 2 3 3 3 2 1 1 1 2 0 1 1 1 0 2 2 1 1 1 1 2 3 4 3 1 3 5 6 7 9 9 9 10 10 9 9 9 10 12 13 13 14 14 13 13 14 15 15 16 16 15 14 16 18 19 19 17 16 17 19 20 19 16 12 8
2 3 1 0 1 2 2 2 2 3 3 4 4 3 1 3 3 3 3 3 2 3 3 2 2 3 2 1 1 1 0 1 1 1 0 1 2 1 1 2 2 2 3 4 3 1 3 4 4 6 7 9 9 9 10 10 10 10 10 11 12 13 13 13 13 13 13 14 15 15 15 16 15 14 15 16 18 19 18 18 20 23 23 20 15 9 2
2 2 2 1 2 3 3 3 3 2 2 2 2 0 2 3 2 3 4 3 2 3 3 2 1 1 1 1 1 1 1 1 1 1 1 2 2 1 0 2 3 3 3 4 2 2 4 4 5 6 8 9 9 9 9 10 10 10 10 11 12 13 13 13 13 13 14 15 15 14 13 14 15 15 13 15 16 16 15 15 17 22 26 23 14 6 5
2 2 2 2 1 2 3 3 2 2 1 1 1 1 2 2 2 3 4 2 1 2 2 1 1 1 1 1 1 1 1 1 1 1 0 2 2 0 0 2 4 3 2 1 2 4 4 5 6 7 8 9 9 9 9 10 10 11 12 12 12 12 13 12 12 13 14 14 14 13 11 12 14 13 11 12 14 14 13 12 10 15 20 22 12 4 8
4 2 1 2 2 2 3 3 3 2 1 1 1 0 0 1 2 4 3 1 0 1 2 1 1 1 1 2 1 1 0 1 1 2 2 2 2 2 2 3 4 2 1 3 4 5 5 6 6 7 8 8 8 8 8 9 10 10 11 11 11 11 11 11 12 13 14 14 12 11 10 11 11 9 7 9 10 9 10 11 10 13 14 20 14 3 9
4 3 2 3 3 2 2 2 1 1 1 1 1 1 1 1 3 3 2 1 1 2 2 2 2 1 1 1 1 1 2 2 1 2 3 4 4 4 4 4 1 2 3 4 4 5 5 5 6 6 7 7 7 7 8 9 9 9 8 9 9 9 10 11 12 12 13 12 11 9 9 9 8 5 4 6 7 7 9 11 12 14 16 22 18 5 3
3 2 2 3 3 4 3 1 0 0 1 2 1 0 1 2 2 2 1 0 1 2 2 2 2 2 2 1 1 0 1 2 2 3 4 3 2 3 3 2 3 4 4 4 4 5 5 5 5 5 6 6 6 7 7 8 8 7 7 7 8 8 9 11 10 10 10 11 10 8 6 5 4 4 5 6 6 6 6 8 9 10 12 15 14 10 8
2 2 2 2 3 5 4 2 1 1 1 2 1 2 2 1 1 1 1 1 2 2 2 2 3 3 2 2 1 1 1 2 3 4 3 1 1 2 3 3 4 4 4 5 4 4 4 4 4 5 5 5 6 6 7 7 7 7 7 8 9 9 9 10 9 8 8 8 6 5 4 3 2 3 4 5 5 5 4 5 5 6 7 8 6 5 6
Wind_Direction
344 343 342 344 345 347 348 349 351 355 357 356 344 330 309 261 282 285 189 177 191 220 239 227 222 229 232 235 241 245 250 251 253 253 243 233 230 235 246 250 249 257 266 269 262 241 209 190 206 225 211 202 206 192 190 200 200 196 201 208 219 231 233 225 205 191 211 206 191 196 213 231 234 214 207 217 224 232 239 239 216 210 231 231 225 236 176
342 342 342 344 346 347 348 348 350 355 359 354 337 323 318 294 287 288 258 210 206 234 243 231 230 226 230 236 240 244 249 247 244 246 243 241 238 233 237 243 244 248 256 265 273 271 244 194 197 222 224 203 202 195 189 198 202 190 189 197 203 216 222 223 221 201 193 197 196 192 194 211 236 225 210 210 215 222 235 244 221 217 240 237 231 229 171
341 342 343 343 345 347 346 347 349 352 356 355 340 308 303 299 267 260 247 216 213 237 243 243 245 230 229 235 238 241 245 245 241 240 244 251 255 248 236 235 243 248 246 252 266 280 283 244 207 216 222 204 199 198 191 199 209 195 182 191 197 206 211 216 227 219 197 191 206 212 198 194 216 232 223 214 212 214 219 228 213 208 227 227 234 241 132
340 342 343 343 344 346 346 346 348 349 352 353 339 294 288 305 274 258 236 207 215 236 242 251 261 255 245 243 245 245 242 238 232 231 242 247 250 258 251 234 236 241 241 248 261 269 276 274 250 224 221 209 198 201 192 193 204 188 133 180 210 219 215 219 227 232 231 210 191 214 220 202 197 215 230 234 233 228 221 221 218 191 183 197 213 220 177
340 340 343 344 344 346 346 346 347 347 349 350 335 280 256 290 282 293 320 250 226 224 227 238 244 248 251 254 256 255 252 243 221 205 224 242 243 255 265 249 235 233 236 244 263 266 263 267 266 241 228 223 204 198 195 185 167 99 124 193 215 243 234 228 221 220 242 251 233 218 228 223 210 210 223 232 242 249 245 238 227 180 174 200 195 200 204
338 339 342 345 345 345 347 347 348 347 347 347 335 266 247 281 285 311 340 324 259 247 251 250 245 241 240 242 254 260 262 258 241 212 212 228 233 242 257 248 239 240 240 236 246 256 256 266 270 252 238 239 213 191 197 182 132 118 215 207 206 248 249 239 228 215 229 248 257 251 242 234 225 225 228 222 224 238 248 252 247 220 201 215 169 181 216
337 338 341 345 345 345 348 351 350 349 348 346 320 259 284 311 305 322 338 323 294 297 296 286 276 258 245 240 242 250 258 256 250 240 220 215 223 231 238 241 243 246 245 239 236 248 290 298 302 306 300 278 224 191 198 184 148 167 221 220 208 239 248 241 236 227 222 229 239 246 251 248 233 231 237 231 221 223 230 244 250 241 232 226 177 167 215
336 337 340 343 344 346 349 353 353 353 354 350 324 296 340 343 325 324 326 315 302 298 292 285 277 260 251 247 239 243 252 249 243 243 231 215 216 228 231 237 244 242 241 242 234 203 322 311 326 331 322 309 222 201 209 206 181 178 206 217 195 204 233 234 234 242 235 227 229 238 248 253 246 238 240 242 238 229 223 229 239 239 239 235 201 172 191
334 337 338 340 343 346 350 353 353 357 0 355 338 349 359 339 321 317 311 301 301 299 291 283 275 259 248 248 247 246 251 253 250 249 245 234 225 231 235 237 242 248 260 282 279 44 7 324 328 325 324 332 220 206 214 227 215 187 197 216 187 180 217 233 229 242 245 238 235 233 233 239 245 244 239 237 240 240 233 229 232 233 232 230 217 213 205
333 336 337 339 343 346 350 353 353 358 3 358 342 341 345 335 328 324 307 287 287 286 281 278 272 264 252 247 253 253 252 255 254 254 265 255 236 229 242 249 249 260 331 2 327 332 345 326 319 313 314 307 248 198 183 234 230 195 195 219 202 189 206 222 228 234 236 240 243 241 237 235 242 250 248 239 235 238 240 239 237 235 226 205 205 243 254
331 334 335 338 341 344 349 352 352 356 2 359 339 320 329 339 335 322 309 293 285 278 272 268 261 264 269 264 259 258 257 255 249 245 271 274 252 228 235 255 254 211 47 333 310 315 311 305 305 289 283 281 246 193 185 225 239 207 197 218 222 210 205 219 242 245 239 244 254 263 257 243 246 268 269 262 257 255 254 247 232 202 196 147 107 111 86
329 332 334 336 338 342 347 349 350 353 356 351 331 310 320 336 328 311 315 303 292 297 296 279 270 273 285 290 285 267 260 260 266 260 251 266 273 267 246 257 254 134 50 299 309 315 303 303 305 277 259 260 241 210 202 216 234 236 228 229 227 220 215 222 242 252 252 251 255 258 251 253 308 297 268 264 277 294 290 268 201 121 113 114 117 143 135
327 329 332 334 335 339 345 346 346 349 351 348 335 310 310 327 329 315 324 306 289 310 319 302 302 310 287 276 289 283 275 283 298 288 276 268 268 261 239 276 297 347 344 316 315 317 308 318 308 278 261 254 245 229 216 215 220 222 227 232 228 228 229 225 234 242 244 241 238 239 245 280 314 294 276 282 306 322 329 324 307 117 119 139 155 168 198
322 326 330 331 332 337 343 343 342 345 347 347 335 311 304 322 341 325 319 307 295 308 315 311 327 343 323 286 291 303 296 285 270 264 271 271 259 249 244 35 0 331 327 323 318 309 301 297 271 267 270 264 244 232 223 222 221 219 220 220 217 223 228 225 246 248 241 241 240 236 251 257 263 286 305 316 305 302 323 319 305 327 340 228 141 135 184
317 323 326 327 331 336 338 339 340 342 345 346 337 315 308 320 337 320 308 303 304 308 321 330 337 341 331 313 307 309 295 279 270 253 246 248 252 258 281 15 353 319 312 304 291 272 259 245 226 229 238 239 237 229 225 226 218 214 219 221 217 217 208 178 207 245 252 250 247 242 244 241 238 261 269 280 296 301 311 283 268 296 294 261 154 139 177
312 318 322 324 329 334 335 337 339 339 341 345 338 320 312 317 338 325 309 298 297 293 323 344 337 326 315 306 307 308 296 295 311 288 244 230 234 239 244 16 326 289 281 274 259 239 239 232 227 230 224 219 227 234 233 237 227 212 214 220 221 218 209 193 202 221 238 242 244 245 247 244 251 257 245 234 264 284 297 283 255 232 239 238 185 177 182
305 310 316 321 326 330 332 334 337 337 339 343 338 320 309 310 334 328 309 298 294 277 299 344 340 322 315 318 322 324 315 315 328 315 286 265 245 239 269 12 310 267 252 257 248 234 234 227 227 237 228 212 219 228 226 232 238 222 209 217 224 221 214 217 223 223 226 234 241 251 252 245 264 275 265 241 238 253 253 240 225 182 213 246 250 218 167
298 303 311 318 322 326 329 331 334 334 334 339 335 318 303 304 330 333 311 298 290 275 311 359 347 325 335 334 319 323 321 312 318 311 295 287 299 329 342 339 314 287 239 241 247 238 235 229 226 234 238 227 224 229 223 217 228 233 220 219 231 230 223 224 229 231 233 235 243 253 253 244 230 283 286 272 220 218 229 224 203 18 346 220 193 168 132
292 297 305 312 316 321 326 329 331 329 330 338 338 320 305 309 331 337 320 306 297 289 308 338 339 332 341 333 312 317 323 312 312 313 299 295 349 338 320 297 279 282 256 245 245 239 235 233 228 231 242 239 232 236 236 225 224 229 221 216 225 232 235 233 229 234 237 234 242 247 244 301 328 304 317 334 290 216 220 297 344 349 12 32 47 96 82
288 291 297 305 310 316 322 323 326 327 328 334 334 319 306 306 317 334 331 322 316 298 291 335 1 340 331 333 332 335 334 326 331 333 317 321 343 333 311 257 215 273 277 272 253 240 235 233 229 228 238 243 251 261 249 240 239 235 223 215 204 183 229 239 232 233 241 238 245 247 244 325 326 311 338 21 25 249 294 12 337 286 52 26 325 4 40
285 286 290 297 303 310 316 318 322 326 326 330 331 318 307 306 315 342 336 319 307 290 280 348 348 324 309 314 319 318 319 324 334 338 323 317 329 326 303 311 0 351 335 320 281 251 252 255 245 240 245 244 257 277 259 251 251 248 229 160 148 168 211 240 237 200 265 240 227 257 309 1 17 18 40 78 88 120 326 5 337 323 43 27 342 11 27
282 282 285 292 298 306 311 313 320 325 325 329 329 315 307 313 322 334 326 307 285 270 278 293 301 294 284 290 300 306 312 315 319 322 319 311 307 301 296 333 3 16 13 342 317 305 326 319 293 276 289 305 12 302 281 258 237 248 65 103 194 204 204 264 352 95 94 136 149 148 309 354 44 55 64 82 76 57 27 29 38 40 34 10 324 350 12
280 279 281 286 293 302 309 312 319 323 323 327 327 315 309 311 312 320 323 306 279 274 275 274 276 271 258 256 273 292 294 297 300 302 311 317 304 298 2 25 357 346 11 15 347 331 338 331 308 296 323 321 311 322 311 277 254 298 5 71 308 318 28 86 77 88 59 30 22 16 2 37 60 56 47 50 54 47 38 37 40 41 34 349 313 346 353
278 276 278 283 290 300 308 312 316 319 320 323 321 308 299 295 297 315 328 313 291 295 278 257 254 259 227 207 260 280 272 271 296 293 289 296 297 302 33 25 346 327 353 1 335 304 302 307 301 292 262 239 261 273 333 338 318 311 295 252 12 340 345 65 112 183 189 359 330 305 309 75 78 65 51 48 46 40 37 39 33 24 18 16 17 0 322
275 275 275 280 287 296 305 311 314 317 319 320 318 307 298 297 310 330 332 308 301 317 296 258 222 132 76 223 232 256 288 303 285 270 258 262 287 315 344 346 336 326 324 321 309 294 293 296 296 285 255 228 314 277 174 140 306 295 293 320 202 285 326 32 84 193 178 167 206 214 172 88 78 75 60 50 48 43 37 34 33 28 18 8 357 325 288
273 276 276 278 283 291 302 311 315 317 317 316 314 305 296 300 316 326 315 305 306 287 267 265 178 144 203 252 211 221 298 285 255 250 263 266 279 304 318 325 327 318 301 290 285 290 300 304 302 288 268 231 356 289 243 168 207 238 243 170 212 271 334 28 251 226 143 142 193 194 143 90 73 79 73 47 34 43 40 32 33 31 21 6 354 342 324
269 274 277 277 280 288 298 308 313 316 317 316 310 300 291 293 305 308 303 312 317 273 257 283 26 114 291 288 205 229 264 257 248 245 246 250 263 283 298 313 320 312 302 294 285 272 270 284 282 270 270 20 22 274 261 253 242 240 222 190 191 197 225 233 266 297 109 95 2 356 125 99 63 60 62 44 24 29 34 34 30 25 18 8 358 352 344
267 272 275 275 279 287 295 305 310 314 316 314 306 294 282 276 275 270 280 309 318 300 293 304 306 303 300 281 186 203 216 228 259 257 246 243 239 253 286 306 311 312 316 316 307 279 260 273 279 275 308 8 357 273 245 240 249 253 247 234 215 172 153 179 140 105 105 83 34 35 90 115 78 45 36 37 31 12 13 30 26 13 8 6 358 352 346
265 268 270 272 279 285 292 302 307 311 315 312 303 291 273 257 252 254 273 320 328 310 298 292 283 287 285 178 177 213 209 210 250 256 251 257 238 220 239 267 281 305 316 316 311 299 288 301 321 346 29 16 304 302 287 245 244 234 227 237 232 65 58 66 97 103 90 67 48 37 20 359 17 12 358 27 55 15 357 10 9 358 355 355 350 341 334
262 266 267 269 276 284 294 301 304 309 311 304 295 286 253 201 139 50 359 328 324 313 302 296 290 295 294 178 197 224 209 203 228 237 233 248 251 231 227 229 235 271 290 295 300 304 315 323 312 325 63 75 298 305 324 292 275 284 259 214 113 81 65 50 45 57 66 63 51 29 343 317 321 324 307 318 70 40 357 350 350 343 336 333 332 327 320
256 260 263 265 273 283 291 297 301 307 305 294 285 285 240 163 80 32 11 339 317 302 288 282 282 286 280 212 196 221 219 213 223 230 221 221 231 230 230 232 224 228 248 270 289 299 311 318 300 306 22 45 0 306 311 295 276 350 34 49 76 75 65 53 30 23 35 37 18 350 303 292 304 311 313 351 24 14 344 331 328 320 317 320 317 307 300
250 255 258 259 268 280 287 294 300 301 295 282 274 278 284 289 310 333 340 332 306 284 280 286 282 278 262 173 162 194 218 216 217 223 213 202 209 209 207 230 240 221 227 287 304 295 278 276 287 298 1 57 357 300 301 281 266 339 29 36 49 53 54 61 42 15 7 358 344 330 310 329 359 3 352 348 347 336 324 319 316 312 310 308 298 290 291
244 249 253 255 265 279 284 285 289 289 286 281 279 276 270 269 286 314 326 312 285 272 274 283 280 280 281 134 142 173 213 219 206 202 196 185 197 199 183 211 253 232 158 196 248 258 246 241 260 267 149 123 242 287 277 263 280 312 342 347 5 38 47 49 36 6 341 335 348 1 6 6 2 349 332 322 317 317 319 316 311 308 306 302 296 294 297
235 241 249 258 268 277 279 278 280 282 276 273 279 286 271 249 279 304 295 281 274 267 259 262 277 287 277 190 153 167 223 237 207 192 190 175 193 213 180 169 211 214 191 207 233 241 250 259 256 247 186 144 162 254 259 256 275 300 312 318 351 27 26 5 350 340 350 20 30 23 5 343 321 309 310 315 317 323 327 324 319 317 312 308 308 309 309
231 238 246 258 266 273 280 279 274 270 265 258 257 272 59 327 297 278 253 247 262 266 244 237 255 273 268 238 161 139 245 263 228 177 156 151 197 237 218 172 189 193 181 210 245 238 235 251 250 242 199 153 167 200 235 240 244 293 321 329 5 23 6 347 357 14 26 23 4 342 334 323 313 316 333 338 333 333 334 329 325 325 323 321 325 326 321
230 236 244 260 272 277 278 268 255 252 255 253 249 261 275 293 289 262 238 237 251 270 294 276 258 260 273 267 141 125 257 270 151 91 45 166 192 230 239 215 209 158 142 196 238 233 195 167 213 241 214 178 188 186 170 334 4 26 14 6 19 22 9 1 1 4 8 355 332 327 328 320 316 329 343 336 329 329 326 320 320 325 326 322 320 319 313
224 230 244 258 261 260 258 247 233 228 227 225 260 283 278 271 261 246 237 235 231 227 251 286 283 281 283 287 74 91 249 220 166 193 229 200 172 190 228 228 210 138 167 215 227 216 149 134 206 251 231 206 312 60 66 24 350 8 7 357 1 3 1 10 11 0 349 334 322 322 323 318 321 334 336 328 323 320 319 318 321 323 317 310 309 308 306
215 222 241 251 245 239 243 226 202 197 213 230 251 269 248 227 224 224 224 221 206 199 221 266 277 277 275 267 216 38 298 252 213 207 211 254 194 198 219 233 170 78 255 225 163 142 161 151 198 258 244 205 317 14 39 8 350 27 33 22 23 22 15 18 16 358 341 331 328 330 332 328 324 321 318 315 314 314 314 313 313 312 310 313 318 317 309
208 216 233 244 245 247 175 153 164 180 209 224 234 249 230 212 227 231 208 197 196 197 215 242 247 251 267 273 190 117 331 295 282 228 177 161 325 214 215 223 46 305 268 219 112 192 243 187 188 248 245 169 115 51 38 23 24 35 28 19 28 31 21 13 5 354 343 334 327 324 319 311 307 307 310 309 309 309 310 311 314 318 318 317 315 312 308
209 217 222 228 238 256 135 160 182 203 217 212 211 239 234 205 229 234 192 183 204 214 211 220 224 226 254 280 126 87 346 334 341 331 234 141 44 325 270 235 49 278 259 193 120 275 282 249 208 230 209 93 81 66 52 37 41 42 27 15 20 24 14 1 350 340 332 321 315 313 311 307 306 307 305 304 304 305 307 310 313 314 312 311 310 307 303
211 222 227 219 237 286 245 201 204 219 229 209 200 232 238 216 234 243 204 191 204 203 193 202 201 189 210 228 186 117 335 333 329 284 270 16 16 306 279 126 61 270 262 115 83 330 287 254 230 174 102 94 91 84 61 39 44 41 25 15 16 12 359 347 338 330 324 317 312 310 307 303 302 299 296 297 299 299 300 302 303 302 302 301 301 297 292
204 231 252 239 203 264 245 220 203 214 235 222 219 240 240 216 213 222 220 225 228 187 170 178 183 164 161 142 96 76 5 327 304 278 286 36 6 307 307 43 256 263 259 85 69 265 246 232 220 100 96 97 87 67 44 50 60 44 14 6 8 358 347 342 335 327 321 315 312 312 310 305 302 300 298 297 295 292 292 293 292 294 295 293 290 288 288
221 248 254 235 201 218 226 207 184 195 213 209 224 238 231 217 211 209 210 232 255 200 149 130 94 110 109 84 60 65 58 311 300 302 331 66 272 277 273 246 251 289 11 47 230 237 236 222 61 54 53 53 45 32 21 27 43 38 12 357 345 331 326 326 320 314 311 306 303 305 306 304 304 305 303 299 295 293 293 292 290 288 288 287 285 283 283
230 242 267 303 138 213 214 187 195 241 218 194 198 213 207 199 202 204 193 184 189 178 153 150 178 181 122 97 93 143 127 140 285 293 70 109 246 235 225 226 233 5 345 289 244 225 203 86 60 41 26 26 30 23 15 13 12 1 343 328 316 311 310 307 305 306 307 303 300 300 298 296 298 300 298 292 289 287 285 284 286 287 284 280 277 274 276
209 179 113 31 23 250 232 165 223 250 227 199 215 237 219 174 165 169 163 146 146 154 155 154 156 146 121 115 174 143 107 137 245 204 126 211 249 238 244 330 350 335 280 266 251 225 137 73 54 35 22 16 10 360 355 351 341 331 325 318 315 319 319 314 310 310 305 299 298 299 295 289 288 289 289 291 296 301 302 303 303 300 293 284 273 267 269
202 165 176 185 191 239 238 175 189 234 222 189 208 244 16 81 92 84 67 68 106 125 115 98 105 118 129 143 123 75 67 222 203 152 117 251 239 207 40 348 320 288 258 251 245 182 95 68 37 17 12 6 353 344 342 339 334 331 327 317 314 317 316 309 306 304 298 296 298 299 297 296 296 297 300 305 309 314 321 325 323 319 312 298 277 259 232
214 211 244 237 193 217 223 197 197 232 220 179 194 131 74 86 87 71 67 64 72 92 93 84 75 83 91 95 103 137 213 219 162 103 297 262 232 162 101 268 257 253 250 250 255 53 51 32 10 2 358 350 342 339 337 331 327 326 321 312 309 311 308 303 301 299 295 296 299 299 300 305 306 304 306 308 306 310 319 323 328 333 328 311 280 215 147
214 200 232 253 224 208 208 202 215 245 235 204 246 16 79 130 146 98 82 68 44 79 103 134 139 120 131 136 123 136 183 207 147 126 309 292 280 45 11 266 245 236 250 305 10 23 14 1 357 353 345 339 338 337 332 325 323 322 317 310 309 309 306 302 302 301 299 299 298 294 295 299 298 297 304 307 304 308 315 319 343 4 345 315 287 149 114
263 238 251 282 273 232 205 199 209 224 211 193 213 351 80 144 124 98 87 69 35 86 93 84 74 111 167 177 149 130 154 261 215 159 170 235 234 206 219 243 232 203 56 23 13 2 352 352 350 341 336 335 336 334 331 327 324 321 316 310 309 309 306 301 301 302 302 303 302 298 297 298 296 296 310 317 316 320 321 325 1 26 349 306 289 131 112
254 248 261 277 280 274 239 205 205 216 186 174 175 185 173 141 110 97 92 102 124 123 126 125 117 131 204 218 183 174 190 207 213 199 203 214 218 220 237 253 273 43 27 7 354 344 342 346 343 335 335 339 335 330 330 328 325 324 321 314 310 309 309 307 307 310 314 315 312 302 295 298 304 312 323 324 327 335 335 338 2 14 342 315 309 318 131
230 253 263 263 284 301 297 269 296 308 182 169 166 122 103 116 109 97 86 141 182 174 172 168 164 175 195 195 178 229 219 198 196 210 222 234 253 265 272 305 12 19 353 339 341 341 344 349 344 332 329 332 328 325 329 334 336 340 341 332 326 326 325 324 326 329 328 325 320 309 296 297 309 316 311 310 318 328 333 342 358 2 345 331 327 330 332
209 257 260 249 282 294 288 269 285 314 157 135 98 51 66 103 132 129 127 217 226 190 172 204 215 204 189 173 155 326 282 230 212 217 221 233 345 338 336 358 9 356 336 332 337 342 347 345 330 318 318 320 320 324 332 340 346 351 350 345 345 343 336 336 342 345 335 329 333 336 329 317 304 293 298 310 320 321 322 338 350 338 319 309 301 302 326